Вернуться в каталог

COSMOS 2251 DEB

АктивенLEO
NORAD 34045·DEBRIS·🇷🇺 Russia

Запущен Jun 16, 1993 с Plesetsk Cosmodrome

Loading…

Ближайшие Пролёты (ближайшие 24 часа)

TLE

СвежийSource: Space-Track

Эпоха: Sep 14, 2026, 05:25 UTC

1 34045U 93036JG  26257.22599355  .00000121  00000-0  52441-4 0  9993
2 34045  74.0398 166.7114 0026683 187.8895 327.2088 14.34186892919821

Отслеживайте COSMOS 2251 DEB в реальном времени с AllMySat

Download on the App Store